China Lake, CA

7:06 AM PST on January 18, 2018 (GMT -0800)
China Lake NAWS

Weather History for KNID - February, 2012

Change the Weather History Date:

Thursday, February 2, 2012

  Actual Average Record
Temperature  
Mean Temperature 44 °F -  
Max Temperature 61 °F 59 °F 71 °F (2017)
Min Temperature 28 °F 33 °F 23 °F (2016)
Degree Days  
Heating Degree Days 20    
Moisture  
Dew Point 15 °F    
Average Humidity 33    
Maximum Humidity 75    
Minimum Humidity 13    
Precipitation  
Precipitation 0.00 in - - ()
Sea Level Pressure  
Sea Level Pressure 30.07 in    
Wind  
Wind Speed 5 mph (SSE)    
Max Wind Speed 9 mph    
Max Gust Speed -    
Visibility 10 miles    
Events      
Averages and records for this station are not official NWS values.
T = Trace of Precipitation, MM = Missing Value Source: NWS Daily Summary

Daily Weather History Graph

Daily Weather History Graph

Search for Another Location

Airport or City:

Trip Planner

Search our weather history database for the weather conditions in past years. The results will help you decide how hot, cold, wet, or windy it might be!

Date:

Astronomy

Feb. 02, 2012 Rise Set
Actual Time 6:50 AM PST 5:18 PM PST
Civil Twilight 6:23 AM PST 5:45 PM PST
Nautical Twilight 5:53 AM PST 6:16 PM PST
Astronomical Twilight 5:23 AM PST 6:46 PM PST
Moon 12:38 PM PST (2/2) 2:32 AM PST (2/2)
Length of Visible Light 11h 22m
Length of Day
10h 28m
Waxing Gibbous, 74% of the Moon is Illuminated
Feb 2
Waxing Gibbous
Feb 7
Full
Feb 14
Last Quarter
Feb 21
New
Feb 29
First Quarter

Hourly Weather History & Observations

Time (PST) Temp. Windchill Dew Point Humidity Pressure Visibility Wind Dir Wind Speed Gust Speed Precip Events Conditions
12:56 AM 48.0 °F - 18.0 °F 30% 30.08 in 10.0 mi SE 6.9 mph - N/A   Clear
1:56 AM 42.1 °F 37.1 °F 19.9 °F 41% 30.08 in 10.0 mi SW 8.1 mph - N/A   Clear
2:56 AM 39.9 °F 36.7 °F 23.0 °F 51% 30.09 in 10.0 mi South 4.6 mph - N/A   Clear
3:56 AM 36.0 °F 29.6 °F 23.0 °F 59% 30.09 in 10.0 mi South 8.1 mph - N/A   Clear
4:56 AM 37.0 °F - 25.0 °F 62% 30.10 in 10.0 mi Calm Calm - N/A   Clear
5:56 AM 33.1 °F 28.7 °F 21.0 °F 61% 30.09 in 10.0 mi SSE 4.6 mph - N/A   Clear
6:56 AM 28.9 °F - 21.9 °F 75% 30.12 in 10.0 mi Calm Calm - N/A   Clear
7:56 AM 39.9 °F - 28.0 °F 63% 30.12 in 10.0 mi Calm Calm - N/A   Partly Cloudy
8:56 AM 45.0 °F - 26.1 °F 48% 30.12 in 10.0 mi Calm Calm - N/A   Partly Cloudy
9:56 AM 51.1 °F - 24.1 °F 35% 30.11 in 10.0 mi Calm Calm - N/A   Partly Cloudy
10:56 AM 55.9 °F - 23.0 °F 28% 30.09 in 10.0 mi NE 4.6 mph - N/A   Partly Cloudy
11:56 AM 59.0 °F - 16.0 °F 19% 30.06 in 10.0 mi ESE 5.8 mph - N/A   Partly Cloudy
12:56 PM 61.0 °F - 12.9 °F 15% 30.03 in 10.0 mi East 8.1 mph - N/A   Partly Cloudy
1:56 PM 61.0 °F - 12.9 °F 15% 30.01 in 10.0 mi SE 4.6 mph - N/A   Partly Cloudy
2:56 PM 61.0 °F - 10.0 °F 13% 30.00 in 10.0 mi SE 3.5 mph - N/A   Partly Cloudy
3:56 PM 61.0 °F - 9.0 °F 13% 30.00 in 10.0 mi SE 9.2 mph - N/A   Partly Cloudy
4:56 PM 57.9 °F - 8.1 °F 14% 30.01 in 10.0 mi SE 6.9 mph - N/A   Clear
5:56 PM 51.1 °F - 7.0 °F 17% 30.03 in 10.0 mi SSE 4.6 mph - N/A   Clear
6:56 PM 46.9 °F - 7.0 °F 20% 30.05 in 10.0 mi SW 5.8 mph - N/A   Clear
7:56 PM 50.0 °F - 6.1 °F 17% 30.05 in 10.0 mi West 8.1 mph - N/A   Clear
8:56 PM 43.0 °F 38.8 °F 8.1 °F 24% 30.06 in 10.0 mi West 6.9 mph - N/A   Clear
9:56 PM 37.9 °F - 7.0 °F 28% 30.07 in 10.0 mi Calm Calm - N/A   Clear
10:56 PM 41.0 °F 38.0 °F 5.0 °F 23% 30.08 in 10.0 mi West 4.6 mph - N/A   Clear
11:56 PM 41.0 °F 38.0 °F 5.0 °F 23% 30.09 in 10.0 mi NNW 4.6 mph - N/A   Clear